Flag for Pakistan Weather past 2 weeks in Islamabad, Pakistan

Now
95 °F

Passing clouds.


Feels Like: 101 °F
Forecast: 71 / 99 °F
Wind: 9 mph from Southwest

Location: Islamabad Airport

Current Time: Aug 31, 2014 at 2:23:08 PM

Latest Report: Aug 31, 2014 at 2:00 PM


Visibility: N/A

Pressure: 29.65 "Hg

Humidity: 44%

Dew point: 70 °F

Location of IslamabadLocation

Historic Weather in Islamabad — Graph

°F

Islamabad temperature yesterday

Maximum temperature yesterday: 95 °F (at 2:00 PM)
Minimum temperature yesterday: 75 °F (at 6:00 AM)
Average temperature yesterday: 85 °F

Past Weeks' High & Low Weather Summary

 TemperatureHumidityPressure
High100 °F (Aug 18, 10:00 PM)94% (Aug 16, 9:00 PM)29.86 "Hg (Aug 16, 9:00 PM)
Low68 °F (Aug 22, 11:00 PM)37% (Aug 18, 10:00 PM)29.62 "Hg (Aug 21, 5:00 PM)
Average83 °F65%29.74 "Hg
* Reported Aug 16 1:00 PM — Aug 31 1:00 PM, Islamabad, Weather by CustomWeather, © 2014

Note: Actual official high and low records may vary slightly from our data, if they occured in-between our weather recording intervals... More about our weather records

Advertising

Islamabad weather history for previous 24 hours

 ConditionsComfort  
Time TempWeatherWind HumidityBarometerVisibility
1:00 PM
Aug 31
95 °FPassing clouds.9 mph44%29.68 "HgN/A
12:00 PM95 °FPassing clouds.9 mph47%29.71 "HgN/A
11:00 AM93 °FSunny.7 mph47%29.71 "Hg10 mi
10:00 AM90 °FPassing clouds.5 mph52%29.74 "Hg5 mi
9:00 AM84 °FPassing clouds.7 mph58%29.74 "Hg4 mi
8:00 AM81 °FPassing clouds.5 mph62%29.74 "Hg4 mi
7:00 AM77 °FPassing clouds.5 mph69%29.74 "Hg4 mi
6:00 AM77 °FPassing clouds.5 mph69%29.74 "Hg4 mi
5:00 AM77 °FPassing clouds.5 mph69%29.74 "Hg4 mi
4:00 AM77 °FPassing clouds.5 mph69%29.71 "Hg4 mi
3:00 AM77 °FPassing clouds.5 mph69%29.71 "Hg4 mi
2:00 AM77 °FPassing clouds.7 mph74%29.71 "Hg4 mi
1:00 AM79 °FPassing clouds.7 mph65%29.68 "Hg4 mi
12:00 AM79 °FPassing clouds.7 mph65%29.68 "Hg4 mi
11:00 PM
Aug 30
81 °FPassing clouds.9 mph66%29.68 "Hg4 mi
10:00 PM81 °FPassing clouds.9 mph70%29.68 "Hg5 mi
9:00 PM82 °FPassing clouds.9 mph66%29.68 "HgN/A
8:00 PM86 °FPassing clouds.9 mph59%29.68 "HgN/A
7:00 PM90 °FPassing clouds.12 mph49%29.68 "HgN/A
6:00 PM91 °FPassing clouds.5 mph46%29.65 "HgN/A
5:00 PM93 °FPassing clouds.5 mph44%29.65 "HgN/A
4:00 PM93 °FPassing clouds.7 mph44%29.65 "HgN/A
3:00 PM95 °FPassing clouds.9 mph39%29.68 "HgN/A
2:00 PM95 °FPassing clouds.12 mph39%29.71 "HgN/A
Weather by CustomWeather, © 2014

See weather overviewHow to use our weather pages